Location: Recife
(8.0585°S, 34.8848°W)
Time: 13:00:08
(UTC-03:00)

Injun/Solrad 3 - Pass Details

Date: 15 April 2026
Orbit: 868 x 988 km, 66.8° (Epoch: 12 May)

Event Time Altitude Azimuth Distance (km) Brightness Sun altitude
Rises 20:54:34 0° 228° (SW) 3,454 - -54.2°
Reaches altitude 10° 20:57:48 10° 246° (WSW) 2,512 - -55.0°
Maximum altitude 21:01:39 18° 288° (WNW) 1,983 - -55.9°
Drops below altitude 10° 21:05:32 10° 330° (NNW) 2,519 - -56.9°
Sets 21:08:48 0° 348° (NNW) 3,467 - -57.7°
